sat.trackr.live / text

‹ back to catalog

STARLINK-34923

NORAD 65247 · 2025-179N

PAYLOAD ACTIVE UNKNOWN

§ Identity

Operator
Country
US
Launch date
2025-08-18
Launch site
AFWTR
Launch vehicle
Mass (kg)
RCS (m²)

Purposes: comms

External: N2YO · Heavens-Above · Gunter

§ Orbital elements

Epoch: 2026-05-25T02:45:16.953984Z

Period
95.64 min
Inclination
97.4480°
Eccentricity
0.0001980
Mean motion
15.05655263 rev/d
Perigee alt
548.1 km
Apogee alt
550.9 km
Semi-major
6,927.6 km
B*
1.4616e-4
RAAN
187.8598°
Arg perigee
116.2439°
Mean anomaly
243.8992°
Rev number
4,336

§ Raw data

STARLINK-349231 65247U 25179N   26145.11477956  .00002051  00000+0  14616-3 0  99942 65247  97.4480 187.8598 0001980 116.2439 243.8992 15.05655263 43369

JSON: /api/v1/satellites/65247 · /tle

For live sub-satellite position, see the globe view (requires WebGL).

§ Visibility from observer

Set your observer location to see the next 7 days of passes ≥ 10°. The values pass through the URL so the page stays shareable.

No JS? Fill the form by hand. The geolocation button needs JavaScript.